Showing default

KINEIS-5A, 62084

Orbit data source: Space-Track

KINEIS-5A, 62084 is a French payload satellite in SSO that was launched on Mon, 25 Nov 2024 UTC via an ELECTRON launch vehicle from the Rocket Lab Launch Complex (RLLC). Payload-class satellites include a variety of spacecraft equipped with specific instruments for various scientific and technological missions. These include communications satellites like Starlink; space stations such as the ISS; scientific satellites like the Hubble; Earth observation satellites from companies like Planet Labs, Umbra, and HawkEye 360; GPS; miniature CubeSats for education and research; and military/defense satellites.

Loading next visibility...
Identifier
62084, 2024-219D
Orbit
SSO
Country
Flag of FRFR
Related business
Manufacturer
KINEIS
Mission
Operational Commercial Communications
Bus & Motor
CUBESAT 16U, Unknown motor
Mass
28 kg wet, 28 kg dry
Launch date (UTC)
2024-11-25 (10 months ago)
Launch vehicle
ELECTRON
Launch site
Rocket Lab Launch Complex (RLLC)
Object type
Payload
Rocket body
Debris
Shape & HBR
Box + 2 Pan + 1 Ant, 0.8 m
Radar Cross Section
0.229 m², Medium (>0.1 m² and < 1m²)

Expand to show TLE details & history
Last TLE update: 6 hours ago

TLE from 6 hours ago
0 KINEIS-5A
1 62084U 24219D   25258.30974659  .00000943  00000-0  15675-3 0  9996
2 62084  97.9815  58.1254 0003449  98.2748 261.8850 14.72365910 43324
Epoch: 2025-09-15T07:26Z
TLE epoch observation values (Epoch: 2025-09-15T07:26:02.105Z)
Latitude
-0.00009°
Longitude
-47.8996°
Altitude
656.877 km
Speed
7.529 km/s
True Right ascension
03h 52m 30s
True Declination
0° 00' 00"
Sunlit
Object was in partial shadow at epoch
Visualization orbit readout
Latitude
Unknown
Longitude
Unknown
Altitude
Unknown
Speed
Unknown
Apparent Right ascension
Unknown
Apparent Declination
Unknown
Sunlit
N/A
Visualization observer readout
Local Sidereal Time
05:50:11
Azimuth
Unknown
Elevation
Unknown
Doppler factor
Unknown
Orbital elements
Apogee altitude
653.004 km
Perigee altitude
648.156 km
Semi-major axis
7,028.717 km
Eccentricity
0.00034
Inclination
97.9815°
RAAN
58.1254°
Arg. of periapsis
98.2748°
True anomaly
261.84588°
Mean anomaly
261.885°
Eccentric anomaly
261.86544°
Mean motion
3.68323 °/min
Orbital period
97.74 mins
BSTAR
0.00015675
Loading maneuver chart data...
Computing Atmospheric mass density...
Loading historical data...
Loading historical data...
Loading historical data...
Loading historical data...
Loading historical data...
Loading historical data...
Loading historical data...

Documentation

Showing up to 5 results
|